Location: Ahstedt
(52.2048°N, 10.1060°E)
Time: 20:12:08
(UTC+00:00)

MOS 1 Rocket - Pass Details

Date: 18 January 2026
Orbit: 608 x 815 km, 97.4° (Epoch: 16 February)

Event Time Altitude Azimuth Distance (km) Brightness Sun altitude
Rises 05:26:51 0° 17° (NNE) 3,038 6.7 -16.6°
Reaches altitude 10° 05:29:14 10° 23° (NNE) 2,088 5.9 -16.2°
Maximum altitude 05:33:36 46° 98° (E) 857 4.3 -15.5°
Drops below altitude 10° 05:37:45 10° 172° (S) 1,985 5.9 -14.9°
Sets 05:39:57 0° 178° (S) 2,872 6.7 -14.6°
